ABS-2A (MONGOLSAT-1) (41588 NORAD) Tracking and Keplerian Element Data

This shows tracking and keplerian element data for the satellite.

Feedback or suggestion? Click here.




ElementValue
Catalog41588
NameABS-2A (MONGOLSAT-1)
Epoch Orbit891
Epoch Day317.64613511
Epoch Year2018
RAAN295.7774
Inclination0.0161
Eccentricity0.0001929
Argument of Perigee199.1511
Mean Anonmoly225.0872
Mean Motion1.00271837
Decay Rate-8.5E-07
L11 41588U 16038A 18317.64613511 -.00000085 00000-0 00000+0 0 9994
L22 41588 0.0161 295.7774 0001929 199.1511 225.0872 1.00271837 8918

Live tracking and technical data element details for ABS-2A (MONGOLSAT-1) (NORAD 41588). ABS-2A (MONGOLSAT-1) can be tracked NOW for your location showing map with azimuth and elevation plus other details from your city location.

Track the satellite on the map from your city or location and see movement details for azimuth, elevation, latitude, longitude, range, height, and movement on the map or in text.







IsCatalogInMostPopularTable: catalog: 41588, numindb: 134
Update: records affected: 1



GetName: 41588 ABS-2A (MONGOLSAT-1)

Hit Count: updated at: Wed, 14 Nov 2018 12:00:45 GMT